When you browse on this site, cookies collect data to enhance your experience and personalize the content and advertising you see.
Visit our Privacy Policy to learn more. By continuing to use the site, you agree to this use of cookies and data.
  • En España
  • Lista de países
  • Para 7 días
  • Temperatura del agua
  • El tiempo en el mapa
  • Informadores
  • user-avatar
    Iniciar sesión

    Tiempo cada hora Mbandaka

    Hoy, 21 Octubre, Lunes

    Tiempo Temperatura Precipitaciones Viento Presión Humedad
    00:00 +22°C° 0.6 mm 0 mps 731 mmHg 93%
    01:00 +22°C° 0.6 mm 0 mps 731 mmHg 93%
    02:00 +22°C° 1.6 mm 0 mps 731 mmHg 94%
    03:00 +24°C° 1.6 mm 1 mps 731 mmHg 95%
    04:00 +24°C° 1.6 mm 1 mps 730 mmHg 96%
    05:00 +24°C° 0.2 mm 1 mps 731 mmHg 96%
    06:00 +24°C° 0.2 mm 2 mps 732 mmHg 95%
    07:00 +24°C° 0.2 mm 2 mps 732 mmHg 95%
    08:00 +25°C° 0 mm 2 mps 732 mmHg 90%
    09:00 +26°C° 0 mm 2 mps 732 mmHg 84%
    10:00 +27°C° 0 mm 2 mps 732 mmHg 79%
    11:00 +29°C° 0 mm 2 mps 731 mmHg 73%
    12:00 +30°C° 0 mm 2 mps 731 mmHg 68%
    13:00 +31°C° 0 mm 2 mps 730 mmHg 63%
    14:00 +31°C° 0.3 mm 2 mps 729 mmHg 65%
    15:00 +31°C° 0.3 mm 1 mps 728 mmHg 68%
    16:00 +28°C° 0.3 mm 0 mps 728 mmHg 71%
    17:00 +27°C° 0 mm 0 mps 729 mmHg 76%
    18:00 +26°C° 0 mm 0 mps 729 mmHg 81%
    19:00 +24°C° 0 mm 0 mps 730 mmHg 86%
    20:00 +24°C° 0.9 mm 0 mps 730 mmHg 88%
    21:00 +23°C° 0.9 mm 0 mps 730 mmHg 91%
    22:00 +23°C° 0.9 mm 0 mps 730 mmHg 93%
    23:00 +23°C° 1.1 mm 0 mps 730 mmHg 94%

    Mañana, 22 Octubre, Martes

    Tiempo Temperatura Precipitaciones Viento Presión Humedad
    00:00 +24°C° 1.1 mm 1 mps 730 mmHg 95%
    01:00 +24°C° 1.1 mm 1 mps 730 mmHg 96%
    02:00 +24°C° 0.4 mm 1 mps 730 mmHg 96%
    03:00 +24°C° 0.4 mm 1 mps 730 mmHg 97%
    04:00 +24°C° 0.4 mm 1 mps 730 mmHg 97%
    05:00 +24°C° 0 mm 1 mps 730 mmHg 97%
    06:00 +22°C° 0 mm 0 mps 731 mmHg 97%
    07:00 +23°C° 0 mm 0 mps 732 mmHg 96%
    08:00 +23°C° 1.1 mm 0 mps 732 mmHg 95%
    09:00 +26°C° 1.1 mm 1 mps 732 mmHg 94%
    10:00 +26°C° 1.1 mm 1 mps 732 mmHg 92%
    11:00 +26°C° 0.9 mm 1 mps 731 mmHg 93%
    12:00 +26°C° 0.9 mm 1 mps 730 mmHg 94%
    13:00 +25°C° 0.9 mm 1 mps 730 mmHg 95%
    14:00 +25°C° 0 mm 1 mps 729 mmHg 94%
    15:00 +25°C° 0 mm 1 mps 729 mmHg 93%
    16:00 +25°C° 0 mm 1 mps 728 mmHg 92%
    17:00 +25°C° 0 mm 1 mps 729 mmHg 94%
    18:00 +24°C° 0 mm 1 mps 729 mmHg 95%
    19:00 +24°C° 0 mm 1 mps 729 mmHg 97%
    20:00 +21°C° 0 mm 0 mps 729 mmHg 97%
    21:00 +21°C° 0 mm 0 mps 729 mmHg 96%
    22:00 +21°C° 0 mm 0 mps 730 mmHg 96%
    23:00 +21°C° 0 mm 0 mps 729 mmHg 96%

    Pasado mañana, 23 Octubre, Miércoles

    Tiempo Temperatura Precipitaciones Viento Presión Humedad
    00:00 +21°C° 0 mm 0 mps 729 mmHg 96%
    01:00 +21°C° 0 mm 0 mps 729 mmHg 95%
    02:00 +21°C° 0 mm 0 mps 729 mmHg 96%
    03:00 +21°C° 0 mm 0 mps 729 mmHg 96%
    04:00 +21°C° 0 mm 0 mps 729 mmHg 96%
    05:00 +21°C° 0 mm 0 mps 730 mmHg 95%
    06:00 +22°C° 0 mm 0 mps 730 mmHg 94%
    07:00 +24°C° 0 mm 1 mps 731 mmHg 93%
    08:00 +24°C° 0 mm 0 mps 731 mmHg 84%
    09:00 +26°C° 0 mm 0 mps 731 mmHg 75%
    10:00 +28°C° 0 mm 0 mps 731 mmHg 66%
    11:00 +30°C° 0.4 mm 1 mps 730 mmHg 66%
    12:00 +31°C° 0.4 mm 1 mps 729 mmHg 65%
    13:00 +31°C° 0.4 mm 1 mps 728 mmHg 64%
    14:00 +31°C° 0.2 mm 1 mps 728 mmHg 65%
    15:00 +31°C° 0.2 mm 1 mps 727 mmHg 66%
    16:00 +31°C° 0.2 mm 1 mps 727 mmHg 67%
    17:00 +29°C° 0.1 mm 1 mps 727 mmHg 72%
    18:00 +26°C° 0.1 mm 0 mps 728 mmHg 78%
    19:00 +24°C° 0.1 mm 0 mps 728 mmHg 83%
    20:00 +24°C° 0 mm 0 mps 729 mmHg 84%
    21:00 +25°C° 0 mm 1 mps 729 mmHg 85%
    22:00 +25°C° 0 mm 1 mps 729 mmHg 86%
    23:00 +25°C° 0 mm 1 mps 729 mmHg 86%

    24 Octubre, Jueves

    Tiempo Temperatura Precipitaciones Viento Presión Humedad
    00:00 +25°C° 0 mm 1 mps 729 mmHg 85%
    01:00 +26°C° 0 mm 1 mps 729 mmHg 84%
    02:00 +25°C° 0 mm 1 mps 729 mmHg 85%
    03:00 +23°C° 0 mm 0 mps 729 mmHg 87%
    04:00 +22°C° 0 mm 0 mps 729 mmHg 88%
    05:00 +23°C° 1 mm 0 mps 730 mmHg 90%
    06:00 +23°C° 1 mm 0 mps 730 mmHg 92%
    07:00 +25°C° 1 mm 1 mps 731 mmHg 93%
    08:00 +26°C° 0.9 mm 1 mps 731 mmHg 91%
    09:00 +27°C° 0.9 mm 1 mps 731 mmHg 89%
    10:00 +28°C° 0.9 mm 2 mps 731 mmHg 86%
    11:00 +28°C° 1.9 mm 1 mps 730 mmHg 85%
    12:00 +29°C° 1.9 mm 1 mps 729 mmHg 84%
    13:00 +29°C° 1.9 mm 1 mps 729 mmHg 83%
    14:00 +29°C° 1.5 mm 1 mps 728 mmHg 85%
    15:00 +28°C° 1.5 mm 1 mps 728 mmHg 87%
    16:00 +28°C° 1.5 mm 1 mps 728 mmHg 89%
    17:00 +27°C° 0.5 mm 1 mps 729 mmHg 91%
    18:00 +26°C° 0.5 mm 1 mps 729 mmHg 93%
    19:00 +25°C° 0.5 mm 1 mps 730 mmHg 95%
    20:00 +25°C° 0.4 mm 1 mps 730 mmHg 95%
    21:00 +25°C° 0.4 mm 1 mps 730 mmHg 95%
    22:00 +24°C° 0.4 mm 1 mps 731 mmHg 95%
    23:00 +24°C° 0 mm 1 mps 730 mmHg 96%

    25 Octubre, Viernes

    Tiempo Temperatura Precipitaciones Viento Presión Humedad
    00:00 +24°C° 0 mm 1 mps 730 mmHg 96%
    01:00 +24°C° 0 mm 1 mps 730 mmHg 96%
    02:00 +23°C° 0 mm 1 mps 730 mmHg 97%
    03:00 +23°C° 0 mm 1 mps 730 mmHg 97%
    04:00 +23°C° 0 mm 1 mps 730 mmHg 97%
    05:00 +23°C° 0 mm 1 mps 730 mmHg 96%
    06:00 +24°C° 0 mm 1 mps 731 mmHg 95%
    07:00 +24°C° 0 mm 1 mps 731 mmHg 93%
    08:00 +26°C° 0 mm 1 mps 731 mmHg 85%
    09:00 +28°C° 0 mm 1 mps 731 mmHg 76%
    10:00 +29°C° 0 mm 1 mps 732 mmHg 67%
    11:00 +30°C° 0.1 mm 1 mps 731 mmHg 64%
    12:00 +31°C° 0.1 mm 1 mps 730 mmHg 60%
    13:00 +32°C° 0.1 mm 2 mps 729 mmHg 56%
    14:00 +31°C° 0.6 mm 1 mps 728 mmHg 65%
    15:00 +31°C° 0.6 mm 1 mps 728 mmHg 73%
    16:00 +30°C° 0.6 mm 1 mps 728 mmHg 82%
    17:00 +28°C° 0.3 mm 1 mps 728 mmHg 85%
    18:00 +25°C° 0.3 mm 0 mps 729 mmHg 89%
    19:00 +23°C° 0.3 mm 0 mps 729 mmHg 93%
    20:00 +23°C° 0 mm 0 mps 730 mmHg 93%
    21:00 +23°C° 0 mm 0 mps 730 mmHg 94%
    22:00 +23°C° 0 mm 0 mps 730 mmHg 94%
    23:00 +23°C° 0.1 mm 0 mps 730 mmHg 94%

    26 Octubre, Sábado

    Tiempo Temperatura Precipitaciones Viento Presión Humedad
    00:00 +25°C° 0.1 mm 1 mps 730 mmHg 94%
    01:00 +25°C° 0.1 mm 1 mps 730 mmHg 94%
    02:00 +24°C° 0.6 mm 1 mps 730 mmHg 95%
    03:00 +24°C° 0.6 mm 1 mps 729 mmHg 96%
    04:00 +24°C° 0.6 mm 1 mps 729 mmHg 97%
    05:00 +24°C° 1.9 mm 1 mps 730 mmHg 97%
    06:00 +24°C° 1.9 mm 1 mps 730 mmHg 97%
    07:00 +24°C° 1.9 mm 1 mps 731 mmHg 97%
    08:00 +25°C° 0.9 mm 1 mps 731 mmHg 95%
    09:00 +26°C° 0.9 mm 1 mps 731 mmHg 94%
    10:00 +26°C° 0.9 mm 1 mps 731 mmHg 93%
    11:00 +26°C° 1.3 mm 1 mps 730 mmHg 93%
    12:00 +26°C° 1.3 mm 1 mps 730 mmHg 94%
    13:00 +26°C° 1.3 mm 1 mps 729 mmHg 94%
    14:00 +26°C° 0.2 mm 1 mps 729 mmHg 95%
    15:00 +25°C° 0.2 mm 1 mps 729 mmHg 95%
    16:00 +25°C° 0.2 mm 1 mps 728 mmHg 95%
    17:00 +25°C° 0 mm 1 mps 729 mmHg 96%
    18:00 +25°C° 0 mm 1 mps 729 mmHg 96%
    19:00 +24°C° 0 mm 1 mps 730 mmHg 97%
    20:00 +24°C° 0 mm 1 mps 730 mmHg 97%
    21:00 +24°C° 0 mm 1 mps 730 mmHg 97%
    22:00 +24°C° 0 mm 1 mps 730 mmHg 97%
    23:00 +24°C° 0 mm 1 mps 730 mmHg 97%

    27 Octubre, Domingo

    Tiempo Temperatura Precipitaciones Viento Presión Humedad
    00:00 +24°C° 0 mm 1 mps 730 mmHg 97%
    01:00 +23°C° 0 mm 1 mps 729 mmHg 97%
    02:00 +23°C° 0 mm 1 mps 729 mmHg 97%
    03:00 +23°C° 0 mm 1 mps 729 mmHg 97%
    04:00 +23°C° 0 mm 1 mps 729 mmHg 97%
    05:00 +23°C° 0 mm 1 mps 730 mmHg 96%
    06:00 +22°C° 0 mm 0 mps 730 mmHg 95%
    07:00 +22°C° 0 mm 0 mps 731 mmHg 94%
    08:00 +23°C° 0.4 mm 0 mps 731 mmHg 92%
    09:00 +23°C° 0.4 mm 0 mps 731 mmHg 91%
    10:00 +24°C° 0.4 mm 0 mps 731 mmHg 89%
    11:00 +24°C° 0.9 mm 0 mps 731 mmHg 88%
    12:00 +25°C° 0.9 mm 0 mps 730 mmHg 87%
    13:00 +25°C° 0.9 mm 0 mps 729 mmHg 86%
    14:00 +25°C° 0.8 mm 0 mps 729 mmHg 88%
    15:00 +25°C° 0.8 mm 0 mps 729 mmHg 90%
    16:00 +24°C° 0.8 mm 0 mps 728 mmHg 92%
    17:00 +24°C° 0.1 mm 0 mps 729 mmHg 93%
    18:00 +25°C° 0.1 mm 1 mps 729 mmHg 93%
    19:00 +24°C° 0.1 mm 1 mps 730 mmHg 94%
    20:00 +24°C° 0 mm 1 mps 730 mmHg 94%
    21:00 +22°C° 0 mm 0 mps 730 mmHg 95%
    22:00 +22°C° 0 mm 0 mps 730 mmHg 95%
    23:00 +22°C° 0 mm 0 mps 730 mmHg 96%
    Mostrar más